Lexington Weather

Lexington, Massachusetts, USA

34°F
4/16/2021 10:23am 
  • Lexington Conditions: Snow, Fog, Overcast
  • Temperature: 34.0°F / 1.1°CColder 0.2°F than last hour.
  • Dew Point: 32.7°FDecreased 0.2°Fsince last hour.
  • Relative Humidity: 95
  • Wind: Calm, 10-min avg: Calm, gust: None
  • Barometer: 29.49 in Steady
  • Visibility: ½ mile
  • Snow Today: 1.3 in
  •   

Regional Weather Roundup
for Boston / Norton, MA

        
000
ASUS41 KBOX 110404
RWRBOX

REGIONAL WEATHER ROUNDUP
NATIONAL WEATHER SERVICE BOSTON/NORTON MA
1200 AM EDT SUN APR 11 2021

NOTE:  "FAIR" INDICATES FEW OR NO CLOUDS BELOW 12,000 FEET WITH NO 
SIGNIFICANT WEATHER AND/OR OBSTRUCTIONS TO VISIBILITY.

MAZALL-110500-
EASTERN MASSACHUSETTS
  
CITY           SKY/WX    TMP DP  RH WIND       PRES   REMARKS
BOSTON         PTCLDY    60  50  69 SW9       29.73S                  
BEVERLY        NOT AVBL                                               
LAWRENCE       CLEAR     60  52  74 SW7       29.73S                  
BEDFORD        CLEAR     61  51  70 SW7       29.72S                  
BLUE HILL        N/A     54  50  86 SW15      29.73F                  
NORWOOD        CLEAR     56  49  77 S5        29.74F                  
MARSHFIELD     CLEAR     57  52  82 SW10G18   29.73F                  
PLYMOUTH       CLEAR     53  49  86 SW9       29.76S                  
TAUNTON        CLEAR     53  49  86 SW6       29.76F                  
NEW BEDFORD    CLEAR     52  50  93 SW8       29.77S                  
$$

MAZALL-110500-
CAPE COD AND THE ISLANDS
  
CITY           SKY/WX    TMP DP  RH WIND       PRES   REMARKS
FALMOUTH       CLOUDY    50  50 100 SW14      29.78S FOG              
HYANNIS        MOCLDY    50  49  96 S6        29.75F                  
CHATHAM        FOG       47  46  97 SW8       29.79S VSB 3/4          
PROVINCETOWN   CLEAR     47  46  97 S12       29.75F                  
NANTUCKET      FOG       46  46 100 SW10      29.80F VSB 1/4          
MARTHAS VNYRD  FOG       48  48 100 SW10      29.78F VSB 1/2          
$$
 
MAZALL-110500-
CENTRAL AND WESTERN MASSACHUSETTS
  
CITY           SKY/WX    TMP DP  RH WIND       PRES   REMARKS
WORCESTER      CLEAR     57  50  77 W16       29.75F                  
FITCHBURG      CLEAR     62  53  72 VRB5      29.73S                  
ORANGE         CLEAR     57  52  83 S7        29.76S                  
SPRINGFIELD    PTCLDY    56  51  83 S5        29.75S                  
WESTFIELD      PTCLDY    57  52  83 S6        29.75S                  
NORTH ADAMS    PTCLDY    54  47  77 CALM      29.75S                  
PITTSFIELD     PTCLDY    55  50  83 CALM      29.75F                  
$$
 
RIZALL-110500-
RHODE ISLAND
  
CITY           SKY/WX    TMP DP  RH WIND       PRES   REMARKS
PROVIDENCE     CLEAR     54  50  86 SW9       29.77F                  
NEWPORT        FOG       49  49 100 SW5       29.78F VSB 1/2          
BLOCK ISLAND   LGT RAIN  50  49  96 SW14      29.79F VSB 1            
SMITHFIELD     CLEAR     55  53  93 SW6       29.77S                  
WESTERLY       FOG       47  47 100 SW3       29.79F VSB 1            
$$
 
CTZALL-110500-
CONNECTICUT
  
CITY           SKY/WX    TMP DP  RH WIND       PRES   REMARKS
BRADLEY INTL   MOCLDY    58  51  78 S9        29.76S                  
HARTFORD       PTCLDY    57  50  77 S6        29.77F                  
BRIDGEPORT     MOCLDY    53  50  89 SW7       29.78S                  
DANBURY        PTCLDY    56  51  84 CALM      29.79S                  
GROTON         MOCLDY    48  47  96 CALM      29.79S                  
NEW HAVEN      CLOUDY    53  52  96 CALM      29.78F                  
CHESTER        CLOUDY    52  52 100 CALM      29.78S                  
MERIDEN        PTCLDY    54  49  83 S5        29.78S                  
WILLIMANTIC    CLEAR     54  50  86 S3        29.78S                  
OXFORD         PTCLDY    52  52 100 SW3       29.79S                  
$$

MEZ002-015-021-024-NHZ003-005-008-011-012-014-VTZ005-008-110500-
NORTHERN NEW ENGLAND
  
CITY           SKY/WX    TMP DP  RH WIND       PRES   REMARKS
PORTLAND ME    MOCLDY    47  45  93 NE8       29.75S                  
BANGOR ME      CLOUDY    47  43  86 NE3       29.81S                  
CONCORD NH     CLEAR     54  48  80 S5        29.71R                  
MANCHESTER NH  PTCLDY    63  52  67 S3        29.70S                  
NASHUA NH      CLEAR     60  55  83 CALM      29.72S                  
PORTSMOUTH NH  PTCLDY    53  49  84 CALM      29.70F                  
JAFFREY NH     CLEAR     54  51  90 S3        29.75S                  
KEENE NH       CLEAR     54  51  90 CALM      29.74S                  
BURLINGTON VT  CLEAR     57  48  72 CALM      29.71S                  
MT. WASHINGTON MOCLDY    41  39  93 NW22        N/A  WCI  31          
$$

NYZ052-076-110500-
EASTERN NEW YORK
  
CITY           SKY/WX    TMP DP  RH WIND       PRES   REMARKS
ALBANY         CLOUDY    60  53  77 SE8       29.73S                  
NEW YORK CITY  FOG       55  53  93 S6        29.78F VSB 1/4          
$$
 
ANZALL-110500-
MARINE OBSERVATIONS
  
STATION/POSITION TIME  TEMP    WIND        PRES    VSBY  WAVE
                       AIR SEA DIR/SP/G                  HT/PER
                 (UTC) (F)     (DEG/KT/KT) (MB)    (MI)  (FT/S)
BOSTON BUOY      0340   50 46  210/  8/ 10 1006.9F
BUZZARDS BAY     0300          210/ 15/ 16 1009.5F
NANTUCKET SOUND  0340      47                N/A
MASS BAY-STELLWA 0304   50     210/ 12/ 14 1005.1F  1 7/8  3/ 8
ISLE OF SHOALS   0300   64     230/ 21/ 21 1004.9F
S OF BLOCK IS    0326      46                N/A           3/13
$$

......................KEY.........................
  SKY/WX - SKY CONDITION/PRESENT WEATHER
  TMP    - TEMPERATURE IN FAHRENHEIT
  DWPT   - DEWPOINT IN FAHRENHEIT
  RH     - RELATIVE HUMIDITY IN PERCENT
  WIND   - DIRECTION AND SPEED IN MPH
  PRES   - MEAN SEA LEVEL PRESSURE IN INCHES OF HG
  WCI    - WIND CHILL INDEX
  VSB    - VISIBILITY IN MILES
  HX     - HEAT INDEX
  TC     - TEMPERATURE IN CELSIUS
  VRB    - VARIABLE WIND DIRECTION
  N/A    - NOT AVAILABLE
  
      

Other recent Regional Weather Roundups

Fri Apr 16, 10:05am

Fri Apr 16, 9:04am

Fri Apr 16, 8:04am

Fri Apr 16, 7:04am

Fri Apr 16, 6:04am

Fri Apr 16, 5:04am

Fri Apr 16, 4:04am

Fri Apr 16, 3:04am

Fri Apr 16, 2:04am

Fri Apr 16, 1:04am

Fri Apr 16, 12:04am

Thu Apr 15, 11:05pm

Thu Apr 15, 10:04pm

Thu Apr 15, 9:04pm

Thu Apr 15, 8:04pm

Thu Apr 15, 7:05pm

Thu Apr 15, 6:04pm

Thu Apr 15, 5:05pm

Thu Apr 15, 4:04pm

Thu Apr 15, 3:05pm

Thu Apr 15, 2:04pm

Thu Apr 15, 1:05pm

Thu Apr 15, 12:04pm

Thu Apr 15, 11:04am

Thu Apr 15, 10:05am

Thu Apr 15, 9:04am

Thu Apr 15, 8:04am

Thu Apr 15, 7:04am

Thu Apr 15, 6:04am

Thu Apr 15, 5:04am

Thu Apr 15, 4:04am

Thu Apr 15, 3:04am

Thu Apr 15, 2:04am

Thu Apr 15, 1:04am

Thu Apr 15, 12:04am

Wed Apr 14, 11:04pm

Wed Apr 14, 10:04pm

Wed Apr 14, 9:04pm

Wed Apr 14, 8:04pm

Wed Apr 14, 7:04pm

Wed Apr 14, 6:04pm

Wed Apr 14, 5:05pm

Wed Apr 14, 4:04pm

Wed Apr 14, 3:05pm

Wed Apr 14, 2:04pm

Wed Apr 14, 1:05pm

Wed Apr 14, 12:04pm

Wed Apr 14, 11:04am

Wed Apr 14, 10:04am

Wed Apr 14, 9:04am

Wed Apr 14, 8:04am

Wed Apr 14, 7:04am

Wed Apr 14, 6:04am

Wed Apr 14, 5:04am

Wed Apr 14, 4:04am

Wed Apr 14, 3:04am

Wed Apr 14, 2:04am

Wed Apr 14, 1:04am

Wed Apr 14, 12:04am

Tue Apr 13, 11:04pm

Tue Apr 13, 10:05pm

Tue Apr 13, 9:05pm

Tue Apr 13, 8:05pm

Tue Apr 13, 7:04pm

Tue Apr 13, 6:04pm

Tue Apr 13, 5:05pm

Tue Apr 13, 4:04pm

Tue Apr 13, 3:04pm

Tue Apr 13, 2:05pm

Tue Apr 13, 1:04pm

Tue Apr 13, 12:05pm

Tue Apr 13, 11:05am

Tue Apr 13, 10:04am

Tue Apr 13, 9:04am

Tue Apr 13, 8:04am

Tue Apr 13, 7:04am

Tue Apr 13, 6:04am

Tue Apr 13, 5:04am

Tue Apr 13, 4:04am

Tue Apr 13, 3:04am

Tue Apr 13, 2:04am

Tue Apr 13, 1:04am

Tue Apr 13, 12:05am

Mon Apr 12, 11:04pm

Mon Apr 12, 10:04pm

Mon Apr 12, 9:04pm

Mon Apr 12, 8:04pm

Mon Apr 12, 7:05pm

Mon Apr 12, 6:04pm

Mon Apr 12, 5:04pm

Mon Apr 12, 4:04pm

Mon Apr 12, 3:05pm

Mon Apr 12, 2:04pm

Mon Apr 12, 1:05pm

Mon Apr 12, 12:04pm

Mon Apr 12, 11:04am

Mon Apr 12, 10:04am

Mon Apr 12, 9:04am

Mon Apr 12, 8:04am

Mon Apr 12, 7:04am

Mon Apr 12, 6:04am

Mon Apr 12, 5:04am

Mon Apr 12, 4:04am

Mon Apr 12, 3:04am

Mon Apr 12, 2:04am

Mon Apr 12, 1:05am

Mon Apr 12, 12:04am

Sun Apr 11, 11:04pm

Sun Apr 11, 10:04pm

Sun Apr 11, 9:04pm

Sun Apr 11, 8:04pm

Sun Apr 11, 7:04pm

Sun Apr 11, 6:05pm

Sun Apr 11, 5:05pm

Sun Apr 11, 4:04pm

Sun Apr 11, 3:05pm

Sun Apr 11, 2:05pm

Sun Apr 11, 1:05pm

Sun Apr 11, 12:04pm

Sun Apr 11, 11:05am

Sun Apr 11, 10:05am

Sun Apr 11, 9:04am

Sun Apr 11, 8:04am

Sun Apr 11, 7:04am

Sun Apr 11, 6:04am

Sun Apr 11, 5:04am

Sun Apr 11, 4:04am

Sun Apr 11, 3:04am

Sun Apr 11, 2:04am

Sun Apr 11, 1:05am

Sat Apr 10, 11:05pm

Sat Apr 10, 10:04pm

Sat Apr 10, 9:04pm

Sat Apr 10, 8:04pm

Sat Apr 10, 7:05pm

Sat Apr 10, 6:04pm

Sat Apr 10, 5:04pm

Sat Apr 10, 4:04pm

Sat Apr 10, 3:04pm

Sat Apr 10, 2:05pm

Sat Apr 10, 1:04pm

Sat Apr 10, 12:04pm

Sat Apr 10, 11:04am

Sat Apr 10, 10:04am

Sat Apr 10, 9:04am

Sat Apr 10, 8:04am

Sat Apr 10, 7:04am

Sat Apr 10, 6:04am

Sat Apr 10, 5:04am

Sat Apr 10, 4:04am

Sat Apr 10, 3:04am

Sat Apr 10, 2:04am

Sat Apr 10, 1:05am

Sat Apr 10, 12:04am

Fri Apr 9, 11:04pm

Fri Apr 9, 10:05pm

Fri Apr 9, 9:04pm

Fri Apr 9, 8:05pm

Fri Apr 9, 7:05pm

Fri Apr 9, 6:04pm

Fri Apr 9, 5:04pm

Fri Apr 9, 4:05pm

Fri Apr 9, 3:05pm

Fri Apr 9, 2:04pm

Fri Apr 9, 1:04pm

Fri Apr 9, 12:04pm

Fri Apr 9, 11:05am

Meta data:

ID: 0ea9af35-80cd-4573-8eed-b69988a44823
Link: https://api.weather.gov/products/0ea9af35-80cd-4573-8eed-b69988a44823